Year,Month,Day,Hour,Minute,Value (Times are PST for temperature in C)
2016,08,16,00,00,21.80
2016,08,16,00,01,21.80
2016,08,16,00,02,21.80
2016,08,16,00,03,21.80
2016,08,16,00,04,21.80
2016,08,16,00,05,21.70
2016,08,16,00,06,21.70
2016,08,16,00,07,21.70
2016,08,16,00,08,21.70
2016,08,16,00,09,21.70
2016,08,16,00,10,21.60
2016,08,16,00,11,21.60
2016,08,16,00,12,21.60
2016,08,16,00,13,21.60
2016,08,16,00,14,21.60
2016,08,16,00,15,21.60
2016,08,16,00,16,21.60
2016,08,16,00,17,21.50
2016,08,16,00,18,21.50
2016,08,16,00,19,21.50
2016,08,16,00,20,21.40
2016,08,16,00,21,21.40
2016,08,16,00,22,21.40
2016,08,16,00,23,21.40
2016,08,16,00,24,21.40
2016,08,16,00,25,21.30
2016,08,16,00,26,21.30
2016,08,16,00,27,21.30
2016,08,16,00,28,21.30
2016,08,16,00,29,21.30
2016,08,16,00,30,21.20
2016,08,16,00,31,21.20
2016,08,16,00,32,21.20
2016,08,16,00,33,21.20
2016,08,16,00,34,21.10
2016,08,16,00,35,21.10
2016,08,16,00,36,21.10
2016,08,16,00,37,21.10
2016,08,16,00,38,21.00
2016,08,16,00,39,21.00
2016,08,16,00,40,21.00
2016,08,16,00,41,21.00
2016,08,16,00,42,20.90
2016,08,16,00,43,20.90
2016,08,16,00,44,20.90
2016,08,16,00,45,20.90
2016,08,16,00,46,20.90
2016,08,16,00,47,20.90
2016,08,16,00,48,20.90
2016,08,16,00,49,20.90
2016,08,16,00,50,20.90
2016,08,16,00,51,20.90
2016,08,16,00,52,20.90
2016,08,16,00,53,20.80
2016,08,16,00,54,20.80
2016,08,16,00,55,20.80
2016,08,16,00,56,20.80
2016,08,16,00,57,20.80
2016,08,16,00,58,20.80
2016,08,16,00,59,20.80
2016,08,16,01,00,20.80
2016,08,16,01,01,20.80
2016,08,16,01,02,20.70
2016,08,16,01,03,20.70
2016,08,16,01,04,20.70
2016,08,16,01,05,20.70
2016,08,16,01,06,20.70
2016,08,16,01,07,20.70
2016,08,16,01,08,20.70
2016,08,16,01,09,20.60
2016,08,16,01,10,20.60
2016,08,16,01,11,20.60
2016,08,16,01,12,20.60
2016,08,16,01,13,20.60
2016,08,16,01,14,20.50
2016,08,16,01,15,20.50
2016,08,16,01,16,20.50
2016,08,16,01,17,20.40
2016,08,16,01,18,20.40
2016,08,16,01,19,20.40
2016,08,16,01,20,20.40
2016,08,16,01,21,20.40
2016,08,16,01,22,20.40
2016,08,16,01,23,20.30
2016,08,16,01,24,20.30
2016,08,16,01,25,20.30
2016,08,16,01,26,20.30
2016,08,16,01,27,20.30
2016,08,16,01,28,20.30
2016,08,16,01,29,20.30
2016,08,16,01,30,20.30
2016,08,16,01,31,20.30
2016,08,16,01,32,20.20
2016,08,16,01,33,20.20
2016,08,16,01,34,20.20
2016,08,16,01,35,20.20
2016,08,16,01,36,20.20
2016,08,16,01,37,20.20
2016,08,16,01,38,20.20
2016,08,16,01,39,20.20
2016,08,16,01,40,20.20
2016,08,16,01,41,20.20
2016,08,16,01,42,20.20
2016,08,16,01,43,20.20
2016,08,16,01,44,20.20
2016,08,16,01,45,20.20
2016,08,16,01,46,20.10
2016,08,16,01,47,20.10
2016,08,16,01,48,20.10
2016,08,16,01,49,20.10
2016,08,16,01,50,20.10
2016,08,16,01,51,20.10
2016,08,16,01,52,20.10
2016,08,16,01,53,20.10
2016,08,16,01,54,20.10
2016,08,16,01,55,20.10
2016,08,16,01,56,20.10
2016,08,16,01,57,20.10
2016,08,16,01,58,20.10
2016,08,16,01,59,20.10
2016,08,16,02,00,20.10
2016,08,16,02,01,20.10
2016,08,16,02,02,20.00
2016,08,16,02,03,20.10
2016,08,16,02,04,20.00
2016,08,16,02,05,20.00
2016,08,16,02,06,20.00
2016,08,16,02,07,20.00
2016,08,16,02,08,20.00
2016,08,16,02,09,20.00
2016,08,16,02,10,20.00
2016,08,16,02,11,20.00
2016,08,16,02,12,20.00
2016,08,16,02,13,20.00
2016,08,16,02,14,20.00
2016,08,16,02,15,20.00
2016,08,16,02,16,20.00
2016,08,16,02,17,20.00
2016,08,16,02,18,20.00
2016,08,16,02,19,20.00
2016,08,16,02,20,20.00
2016,08,16,02,21,20.00
2016,08,16,02,22,20.00
2016,08,16,02,23,20.00
2016,08,16,02,24,20.00
2016,08,16,02,25,20.00
2016,08,16,02,26,20.00
2016,08,16,02,27,20.00
2016,08,16,02,28,20.00
2016,08,16,02,29,20.00
2016,08,16,02,30,20.00
2016,08,16,02,31,20.00
2016,08,16,02,32,20.00
2016,08,16,02,33,20.00
2016,08,16,02,34,20.00
2016,08,16,02,35,20.00
2016,08,16,02,36,20.00
2016,08,16,02,37,20.00
2016,08,16,02,38,20.00
2016,08,16,02,39,20.00
2016,08,16,02,40,20.00
2016,08,16,02,41,19.90
2016,08,16,02,42,19.90
2016,08,16,02,43,19.90
2016,08,16,02,44,19.90
2016,08,16,02,45,19.90
2016,08,16,02,46,19.90
2016,08,16,02,47,19.90
2016,08,16,02,48,19.80
2016,08,16,02,49,19.80
2016,08,16,02,50,19.80
2016,08,16,02,51,19.80
2016,08,16,02,52,19.80
2016,08,16,02,53,19.80
2016,08,16,02,54,19.80
2016,08,16,02,55,19.80
2016,08,16,02,56,19.80
2016,08,16,02,57,19.80
2016,08,16,02,58,19.70
2016,08,16,02,59,19.70
2016,08,16,03,00,19.70
2016,08,16,03,01,19.70
2016,08,16,03,02,19.70
2016,08,16,03,03,19.70
2016,08,16,03,04,19.70
2016,08,16,03,05,19.70
2016,08,16,03,06,19.60
2016,08,16,03,07,19.60
2016,08,16,03,08,19.60
2016,08,16,03,09,19.60
2016,08,16,03,10,19.60
2016,08,16,03,11,19.60
2016,08,16,03,12,19.60
2016,08,16,03,13,19.60
2016,08,16,03,14,19.50
2016,08,16,03,15,19.50
2016,08,16,03,16,19.50
2016,08,16,03,17,19.40
2016,08,16,03,18,19.40
2016,08,16,03,19,19.40
2016,08,16,03,20,19.40
2016,08,16,03,21,19.40
2016,08,16,03,22,19.40
2016,08,16,03,23,19.40
2016,08,16,03,24,19.30
2016,08,16,03,25,19.30
2016,08,16,03,26,19.30
2016,08,16,03,27,19.30
2016,08,16,03,28,19.30
2016,08,16,03,29,19.30
2016,08,16,03,30,19.20
2016,08,16,03,31,19.20
2016,08,16,03,32,19.20
2016,08,16,03,33,19.20
2016,08,16,03,34,19.20
2016,08,16,03,35,19.20
2016,08,16,03,36,19.10
2016,08,16,03,37,19.10
2016,08,16,03,38,19.10
2016,08,16,03,39,19.00
2016,08,16,03,40,19.00
2016,08,16,03,41,19.00
2016,08,16,03,42,19.00
2016,08,16,03,43,18.90
2016,08,16,03,44,18.90
2016,08,16,03,45,18.90
2016,08,16,03,46,18.80
2016,08,16,03,47,18.80
2016,08,16,03,48,18.80
2016,08,16,03,49,18.80
2016,08,16,03,50,18.80
2016,08,16,03,51,18.70
2016,08,16,03,52,18.70
2016,08,16,03,53,18.70
2016,08,16,03,54,18.70
2016,08,16,03,55,18.70
2016,08,16,03,56,18.70
2016,08,16,03,57,18.60
2016,08,16,03,58,18.60
2016,08,16,03,59,18.60
2016,08,16,04,00,18.60
2016,08,16,04,01,18.60
2016,08,16,04,02,18.60
2016,08,16,04,03,18.60
2016,08,16,04,04,18.60
2016,08,16,04,05,18.60
2016,08,16,04,06,18.60
2016,08,16,04,07,18.60
2016,08,16,04,08,18.60
2016,08,16,04,09,18.60
2016,08,16,04,10,18.60
2016,08,16,04,11,18.70
2016,08,16,04,12,18.70
2016,08,16,04,13,18.70
2016,08,16,04,14,18.70
2016,08,16,04,15,18.70
2016,08,16,04,16,18.70
2016,08,16,04,17,18.60
2016,08,16,04,18,18.60
2016,08,16,04,19,18.60
2016,08,16,04,20,18.60
2016,08,16,04,21,18.60
2016,08,16,04,22,18.60
2016,08,16,04,23,18.60
2016,08,16,04,24,18.60
2016,08,16,04,25,18.60
2016,08,16,04,26,18.60
2016,08,16,04,27,18.60
2016,08,16,04,28,18.60
2016,08,16,04,29,18.60
2016,08,16,04,30,18.60
2016,08,16,04,31,18.60
2016,08,16,04,32,18.60
2016,08,16,04,33,18.60
2016,08,16,04,34,18.60
2016,08,16,04,35,18.60
2016,08,16,04,36,18.60
2016,08,16,04,37,18.60
2016,08,16,04,38,18.60
2016,08,16,04,39,18.60
2016,08,16,04,40,18.60
2016,08,16,04,41,18.60
2016,08,16,04,42,18.60
2016,08,16,04,43,18.60
2016,08,16,04,44,18.60
2016,08,16,04,45,18.60
2016,08,16,04,46,18.60
2016,08,16,04,47,18.60
2016,08,16,04,48,18.60
2016,08,16,04,49,18.60
2016,08,16,04,50,18.60
2016,08,16,04,51,18.60
2016,08,16,04,52,18.50
2016,08,16,04,53,18.60
2016,08,16,04,54,18.50
2016,08,16,04,55,18.50
2016,08,16,04,56,18.50
2016,08,16,04,57,18.50
2016,08,16,04,58,18.50
2016,08,16,04,59,18.50
2016,08,16,05,00,18.50
2016,08,16,05,01,18.50
2016,08,16,05,02,18.50
2016,08,16,05,03,18.50
2016,08,16,05,04,18.50
2016,08,16,05,05,18.50
2016,08,16,05,06,18.50
2016,08,16,05,07,18.50
2016,08,16,05,08,18.50
2016,08,16,05,09,18.50
2016,08,16,05,10,18.40
2016,08,16,05,11,18.40
2016,08,16,05,12,18.40
2016,08,16,05,13,18.40
2016,08,16,05,14,18.40
2016,08,16,05,15,18.40
2016,08,16,05,16,18.40
2016,08,16,05,17,18.40
2016,08,16,05,18,18.40
2016,08,16,05,19,18.40
2016,08,16,05,20,18.40
2016,08,16,05,21,18.40
2016,08,16,05,22,18.40
2016,08,16,05,23,18.40
2016,08,16,05,24,18.40
2016,08,16,05,25,18.40
2016,08,16,05,26,18.40
2016,08,16,05,27,18.40
2016,08,16,05,28,18.40
2016,08,16,05,29,18.40
2016,08,16,05,30,18.40
2016,08,16,05,31,18.30
2016,08,16,05,32,18.30
2016,08,16,05,33,18.30
2016,08,16,05,34,18.30
2016,08,16,05,35,18.30
2016,08,16,05,36,18.30
2016,08,16,05,37,18.30
2016,08,16,05,38,18.30
2016,08,16,05,39,18.30
2016,08,16,05,40,18.30
2016,08,16,05,41,18.30
2016,08,16,05,42,18.20
2016,08,16,05,43,18.20
2016,08,16,05,44,18.20
2016,08,16,05,45,18.20
2016,08,16,05,46,18.20
2016,08,16,05,47,18.20
2016,08,16,05,48,18.20
2016,08,16,05,49,18.20
2016,08,16,05,50,18.20
2016,08,16,05,51,18.20
2016,08,16,05,52,18.20
2016,08,16,05,53,18.20
2016,08,16,05,54,18.20
2016,08,16,05,55,18.20
2016,08,16,05,56,18.10
2016,08,16,05,57,18.10
2016,08,16,05,58,18.10
2016,08,16,05,59,18.10
2016,08,16,06,00,18.10
2016,08,16,06,01,18.10
2016,08,16,06,02,18.10
2016,08,16,06,03,18.10
2016,08,16,06,04,18.10
2016,08,16,06,05,18.10
2016,08,16,06,06,18.10
2016,08,16,06,07,18.10
2016,08,16,06,08,18.10
2016,08,16,06,09,18.10
2016,08,16,06,10,18.10
2016,08,16,06,11,18.10
2016,08,16,06,12,18.10
2016,08,16,06,13,18.10
2016,08,16,06,14,18.10
2016,08,16,06,15,18.10
2016,08,16,06,16,18.10
2016,08,16,06,17,18.10
2016,08,16,06,18,18.10
2016,08,16,06,19,18.10
2016,08,16,06,20,18.10
2016,08,16,06,21,18.10
2016,08,16,06,22,18.10
2016,08,16,06,23,18.10
2016,08,16,06,24,18.10
2016,08,16,06,25,18.10
2016,08,16,06,26,18.10
2016,08,16,06,27,18.10
2016,08,16,06,28,18.10
2016,08,16,06,29,18.10
2016,08,16,06,30,18.00
2016,08,16,06,31,18.00
2016,08,16,06,32,18.00
2016,08,16,06,33,18.00
2016,08,16,06,34,18.00
2016,08,16,06,35,18.00
2016,08,16,06,36,18.00
2016,08,16,06,37,18.00
2016,08,16,06,38,18.00
2016,08,16,06,39,18.00
2016,08,16,06,40,18.00
2016,08,16,06,41,18.00
2016,08,16,06,42,18.00
2016,08,16,06,43,18.00
2016,08,16,06,44,18.00
2016,08,16,06,45,18.00
2016,08,16,06,46,18.00
2016,08,16,06,47,18.00
2016,08,16,06,48,18.00
2016,08,16,06,49,18.00
2016,08,16,06,50,18.10
2016,08,16,06,51,18.00
2016,08,16,06,52,18.00
2016,08,16,06,53,18.00
2016,08,16,06,54,18.00
2016,08,16,06,55,18.00
2016,08,16,06,56,18.10
2016,08,16,06,57,18.10
2016,08,16,06,58,18.10
2016,08,16,06,59,18.10
2016,08,16,07,00,18.10
2016,08,16,07,01,18.10
2016,08,16,07,02,18.10
2016,08,16,07,03,18.10
2016,08,16,07,04,18.20
2016,08,16,07,05,18.20
2016,08,16,07,06,18.20
2016,08,16,07,07,18.20
2016,08,16,07,08,18.20
2016,08,16,07,09,18.20
2016,08,16,07,10,18.20
2016,08,16,07,11,18.20
2016,08,16,07,12,18.20
2016,08,16,07,13,18.20
2016,08,16,07,14,18.20
2016,08,16,07,15,18.20
2016,08,16,07,16,18.20
2016,08,16,07,17,18.20
2016,08,16,07,18,18.20
2016,08,16,07,19,18.20
2016,08,16,07,20,18.30
2016,08,16,07,21,18.30
2016,08,16,07,22,18.30
2016,08,16,07,23,18.30
2016,08,16,07,24,18.30
2016,08,16,07,25,18.30
2016,08,16,07,26,18.30
2016,08,16,07,27,18.30
2016,08,16,07,28,18.30
2016,08,16,07,29,18.30
2016,08,16,07,30,18.30
2016,08,16,07,31,18.30
2016,08,16,07,32,18.30
2016,08,16,07,33,18.30
2016,08,16,07,34,18.30
2016,08,16,07,35,18.30
2016,08,16,07,36,18.30
2016,08,16,07,37,18.40
2016,08,16,07,38,18.40
2016,08,16,07,39,18.40
2016,08,16,07,40,18.40
2016,08,16,07,41,18.40
2016,08,16,07,42,18.40
2016,08,16,07,43,18.40
2016,08,16,07,44,18.40
2016,08,16,07,45,18.40
2016,08,16,07,46,18.40
2016,08,16,07,47,18.40
2016,08,16,07,48,18.40
2016,08,16,07,49,18.40
2016,08,16,07,50,18.50
2016,08,16,07,51,18.50
2016,08,16,07,52,18.60
2016,08,16,07,53,18.60
2016,08,16,07,54,18.60
2016,08,16,07,55,18.60
2016,08,16,07,56,18.70
2016,08,16,07,57,18.70
2016,08,16,07,58,18.70
2016,08,16,07,59,18.80
2016,08,16,08,00,18.80
2016,08,16,08,01,18.80
2016,08,16,08,02,18.80
2016,08,16,08,03,18.80
2016,08,16,08,04,18.80
2016,08,16,08,05,18.80
2016,08,16,08,06,18.80
2016,08,16,08,07,18.80
2016,08,16,08,08,18.80
2016,08,16,08,09,18.80
2016,08,16,08,10,18.80
2016,08,16,08,11,18.80
2016,08,16,08,12,18.80
2016,08,16,08,13,18.80
2016,08,16,08,14,18.80
2016,08,16,08,15,18.80
2016,08,16,08,16,18.80
2016,08,16,08,17,18.90
2016,08,16,08,18,18.90
2016,08,16,08,19,18.90
2016,08,16,08,20,18.90
2016,08,16,08,21,18.90
2016,08,16,08,22,18.90
2016,08,16,08,23,18.90
2016,08,16,08,24,18.90
2016,08,16,08,25,18.90
2016,08,16,08,26,19.00
2016,08,16,08,27,19.00
2016,08,16,08,28,19.00
2016,08,16,08,29,19.00
2016,08,16,08,30,19.00
2016,08,16,08,31,19.10
2016,08,16,08,32,19.10
2016,08,16,08,33,19.10
2016,08,16,08,34,19.10
2016,08,16,08,35,19.10
2016,08,16,08,36,19.10
2016,08,16,08,37,19.10
2016,08,16,08,38,19.10
2016,08,16,08,39,19.10
2016,08,16,08,40,19.10
2016,08,16,08,41,19.10
2016,08,16,08,42,19.10
2016,08,16,08,43,19.10
2016,08,16,08,44,19.20
2016,08,16,08,45,19.20
2016,08,16,08,46,19.20
2016,08,16,08,47,19.20
2016,08,16,08,48,19.20
2016,08,16,08,49,19.20
2016,08,16,08,50,19.30
2016,08,16,08,51,19.30
2016,08,16,08,52,19.30
2016,08,16,08,53,19.40
2016,08,16,08,54,19.40
2016,08,16,08,55,19.40
2016,08,16,08,56,19.50
2016,08,16,08,57,19.50
2016,08,16,08,58,19.50
2016,08,16,08,59,19.50
2016,08,16,09,00,19.50
2016,08,16,09,01,19.60
2016,08,16,09,02,19.60
2016,08,16,09,03,19.60
2016,08,16,09,04,19.70
2016,08,16,09,05,19.70
2016,08,16,09,06,19.70
2016,08,16,09,07,19.80
2016,08,16,09,08,19.80
2016,08,16,09,09,19.80
2016,08,16,09,10,19.80
2016,08,16,09,11,19.80
2016,08,16,09,12,19.70
2016,08,16,09,13,19.70
2016,08,16,09,14,19.70
2016,08,16,09,15,19.70
2016,08,16,09,16,19.70
2016,08,16,09,17,19.70
2016,08,16,09,18,19.70
2016,08,16,09,19,19.70
2016,08,16,09,20,19.70
2016,08,16,09,21,19.80
2016,08,16,09,22,19.80
2016,08,16,09,23,19.80
2016,08,16,09,24,19.80
2016,08,16,09,25,19.90
2016,08,16,09,26,19.90
2016,08,16,09,27,20.00
2016,08,16,09,28,20.00
2016,08,16,09,29,20.10
2016,08,16,09,30,20.10
2016,08,16,09,31,20.10
2016,08,16,09,32,20.10
2016,08,16,09,33,20.10
2016,08,16,09,34,20.10
2016,08,16,09,35,20.10
2016,08,16,09,36,20.10
2016,08,16,09,37,20.20
2016,08,16,09,38,20.20
2016,08,16,09,39,20.20
2016,08,16,09,40,20.30
2016,08,16,09,41,20.30
2016,08,16,09,42,20.30
2016,08,16,09,43,20.30
2016,08,16,09,44,20.30
2016,08,16,09,45,20.30
2016,08,16,09,46,20.30
2016,08,16,09,47,20.30
2016,08,16,09,48,20.30
2016,08,16,09,49,20.40
2016,08,16,09,50,20.40
2016,08,16,09,51,20.40
2016,08,16,09,52,20.40
2016,08,16,09,53,20.40
2016,08,16,09,54,20.30
2016,08,16,09,55,20.30
2016,08,16,09,56,20.30
2016,08,16,09,57,20.30
2016,08,16,09,58,20.40
2016,08,16,09,59,20.40
2016,08,16,10,00,20.40
2016,08,16,10,01,20.40
2016,08,16,10,02,20.40
2016,08,16,10,03,20.50
2016,08,16,10,04,20.50
2016,08,16,10,05,20.60
2016,08,16,10,06,20.60
2016,08,16,10,07,20.60
2016,08,16,10,08,20.60
2016,08,16,10,09,20.70
2016,08,16,10,10,20.70
2016,08,16,10,11,20.70
2016,08,16,10,12,20.70
2016,08,16,10,13,20.70
2016,08,16,10,14,20.70
2016,08,16,10,15,20.70
2016,08,16,10,16,20.70
2016,08,16,10,17,20.70
2016,08,16,10,18,20.70
2016,08,16,10,19,20.70
2016,08,16,10,20,20.70
2016,08,16,10,21,20.70
2016,08,16,10,22,20.70
2016,08,16,10,23,20.70
2016,08,16,10,24,20.70
2016,08,16,10,25,20.70
2016,08,16,10,26,20.70
2016,08,16,10,27,20.70
2016,08,16,10,28,20.80
2016,08,16,10,29,20.80
2016,08,16,10,30,20.80
2016,08,16,10,31,20.80
2016,08,16,10,32,20.80
2016,08,16,10,33,20.90
2016,08,16,10,34,20.90
2016,08,16,10,35,20.90
2016,08,16,10,36,20.90
2016,08,16,10,37,20.90
2016,08,16,10,38,20.90
2016,08,16,10,39,21.00
2016,08,16,10,40,21.00
2016,08,16,10,41,21.00
2016,08,16,10,42,21.00
2016,08,16,10,43,21.00
2016,08,16,10,44,21.00
2016,08,16,10,45,21.10
2016,08,16,10,46,21.10
2016,08,16,10,47,21.20
2016,08,16,10,48,21.30
2016,08,16,10,49,21.30
2016,08,16,10,50,21.40
2016,08,16,10,51,21.40
2016,08,16,10,52,21.40
2016,08,16,10,53,21.40
2016,08,16,10,54,21.40
2016,08,16,10,55,21.50
2016,08,16,10,56,21.50
2016,08,16,10,57,21.50
2016,08,16,10,58,21.50
2016,08,16,10,59,21.40
2016,08,16,11,00,21.40
2016,08,16,11,01,21.40
2016,08,16,11,02,21.40
2016,08,16,11,03,21.40
2016,08,16,11,04,21.40
2016,08,16,11,05,21.50
2016,08,16,11,06,21.50
2016,08,16,11,07,21.40
2016,08,16,11,08,21.40
2016,08,16,11,09,21.40
2016,08,16,11,10,21.50
2016,08,16,11,11,21.60
2016,08,16,11,12,21.60
2016,08,16,11,13,21.70
2016,08,16,11,14,21.70
2016,08,16,11,15,21.70
2016,08,16,11,16,21.70
2016,08,16,11,17,21.70
2016,08,16,11,18,21.70
2016,08,16,11,19,21.70
2016,08,16,11,20,21.70
2016,08,16,11,21,21.70
2016,08,16,11,22,21.70
2016,08,16,11,23,21.60
2016,08,16,11,24,21.50
2016,08,16,11,25,21.40
2016,08,16,11,26,21.40
2016,08,16,11,27,21.40
2016,08,16,11,28,21.40
2016,08,16,11,29,21.50
2016,08,16,11,30,21.60
2016,08,16,11,31,21.60
2016,08,16,11,32,21.60
2016,08,16,11,33,21.60
2016,08,16,11,34,21.60
2016,08,16,11,35,21.60
2016,08,16,11,36,21.60
2016,08,16,11,37,21.70
2016,08,16,11,38,21.70
2016,08,16,11,39,21.70
2016,08,16,11,40,21.70
2016,08,16,11,41,21.70
2016,08,16,11,42,21.60
2016,08,16,11,43,21.60
2016,08,16,11,44,21.60
2016,08,16,11,45,21.50
2016,08,16,11,46,21.60
2016,08,16,11,47,21.60
2016,08,16,11,48,21.60
2016,08,16,11,49,21.70
2016,08,16,11,50,21.70
2016,08,16,11,51,21.70
2016,08,16,11,52,21.80
2016,08,16,11,53,21.90
2016,08,16,11,54,22.00
2016,08,16,11,55,22.00
2016,08,16,11,56,22.10
2016,08,16,11,57,22.00
2016,08,16,11,58,22.00
2016,08,16,11,59,22.10
2016,08,16,12,00,22.10
2016,08,16,12,01,22.20
2016,08,16,12,02,22.30
2016,08,16,12,03,22.40
2016,08,16,12,04,22.50
2016,08,16,12,05,22.60
2016,08,16,12,06,22.70
2016,08,16,12,07,22.80
2016,08,16,12,08,22.80
2016,08,16,12,09,22.70
2016,08,16,12,10,22.60
2016,08,16,12,11,22.50
2016,08,16,12,12,22.50
2016,08,16,12,13,22.40
2016,08,16,12,14,22.50
2016,08,16,12,15,22.50
2016,08,16,12,16,22.60
2016,08,16,12,17,22.60
2016,08,16,12,18,22.60
2016,08,16,12,19,22.60
2016,08,16,12,20,22.70
2016,08,16,12,21,22.80
2016,08,16,12,22,22.80
2016,08,16,12,23,22.80
2016,08,16,12,24,22.90
2016,08,16,12,25,22.80
2016,08,16,12,26,22.80
2016,08,16,12,27,22.80
2016,08,16,12,28,22.70
2016,08,16,12,29,22.70
2016,08,16,12,30,22.70
2016,08,16,12,31,22.70
2016,08,16,12,32,22.70
2016,08,16,12,33,22.70
2016,08,16,12,34,22.60
2016,08,16,12,35,22.60
2016,08,16,12,36,22.50
2016,08,16,12,37,22.40
2016,08,16,12,38,22.50
2016,08,16,12,39,22.50
2016,08,16,12,40,22.60
2016,08,16,12,41,22.60
2016,08,16,12,42,22.70
2016,08,16,12,43,22.80
2016,08,16,12,44,22.80
2016,08,16,12,45,22.80
2016,08,16,12,46,22.80
2016,08,16,12,47,22.80
2016,08,16,12,48,22.90
2016,08,16,12,49,22.90
2016,08,16,12,50,22.90
2016,08,16,12,51,23.00
2016,08,16,12,52,23.00
2016,08,16,12,53,23.10
2016,08,16,12,54,23.10
2016,08,16,12,55,23.20
2016,08,16,12,56,23.20
2016,08,16,12,57,23.20
2016,08,16,12,58,23.10
2016,08,16,12,59,23.10
2016,08,16,13,00,23.00
2016,08,16,13,01,23.00
2016,08,16,13,02,23.00
2016,08,16,13,03,22.90
2016,08,16,13,04,22.80
2016,08,16,13,05,22.70
2016,08,16,13,06,22.60
2016,08,16,13,07,22.60
2016,08,16,13,08,22.60
2016,08,16,13,09,22.60
2016,08,16,13,10,22.70
2016,08,16,13,11,22.80
2016,08,16,13,12,22.90
2016,08,16,13,13,22.90
2016,08,16,13,14,23.00
2016,08,16,13,15,23.00
2016,08,16,13,16,22.90
2016,08,16,13,17,22.90
2016,08,16,13,18,22.90
2016,08,16,13,19,22.90
2016,08,16,13,20,22.90
2016,08,16,13,21,23.00
2016,08,16,13,22,23.10
2016,08,16,13,23,23.20
2016,08,16,13,24,23.30
2016,08,16,13,25,23.30
2016,08,16,13,26,23.30
2016,08,16,13,27,23.30
2016,08,16,13,28,23.20
2016,08,16,13,29,23.10
2016,08,16,13,30,23.10
2016,08,16,13,31,23.10
2016,08,16,13,32,23.10
2016,08,16,13,33,23.10
2016,08,16,13,34,23.10
2016,08,16,13,35,23.00
2016,08,16,13,36,23.00
2016,08,16,13,37,23.00
2016,08,16,13,38,23.00
2016,08,16,13,39,22.90
2016,08,16,13,40,22.90
2016,08,16,13,41,22.90
2016,08,16,13,42,22.90
2016,08,16,13,43,22.90
2016,08,16,13,44,23.00
2016,08,16,13,45,23.00
2016,08,16,13,46,23.00
2016,08,16,13,47,23.10
2016,08,16,13,48,23.10
2016,08,16,13,49,23.10
2016,08,16,13,50,23.20
2016,08,16,13,51,23.30
2016,08,16,13,52,23.30
2016,08,16,13,53,23.30
2016,08,16,13,54,23.20
2016,08,16,13,55,23.30
2016,08,16,13,56,23.30
2016,08,16,13,57,23.30
2016,08,16,13,58,23.30
2016,08,16,13,59,23.40
2016,08,16,14,00,23.40
2016,08,16,14,01,23.40
2016,08,16,14,02,23.40
2016,08,16,14,03,23.40
2016,08,16,14,04,23.30
2016,08,16,14,05,23.40
2016,08,16,14,06,23.40
2016,08,16,14,07,23.40
2016,08,16,14,08,23.40
2016,08,16,14,09,23.50
2016,08,16,14,10,23.50
2016,08,16,14,11,23.60
2016,08,16,14,12,23.70
2016,08,16,14,13,23.80
2016,08,16,14,14,23.90
2016,08,16,14,15,24.00
2016,08,16,14,16,24.20
2016,08,16,14,17,24.30
2016,08,16,14,18,24.40
2016,08,16,14,19,24.50
2016,08,16,14,20,24.60
2016,08,16,14,21,24.70
2016,08,16,14,22,24.80
2016,08,16,14,23,24.80
2016,08,16,14,24,24.80
2016,08,16,14,25,24.80
2016,08,16,14,26,24.80
2016,08,16,14,27,24.80
2016,08,16,14,28,24.80
2016,08,16,14,29,24.90
2016,08,16,14,30,24.90
2016,08,16,14,31,25.00
2016,08,16,14,32,25.00
2016,08,16,14,33,25.20
2016,08,16,14,34,25.20
2016,08,16,14,35,25.30
2016,08,16,14,36,25.30
2016,08,16,14,37,25.30
2016,08,16,14,38,25.30
2016,08,16,14,39,25.30
2016,08,16,14,40,25.30
2016,08,16,14,41,25.30
2016,08,16,14,42,25.40
2016,08,16,14,43,25.40
2016,08,16,14,44,25.50
2016,08,16,14,45,25.60
2016,08,16,14,46,25.60
2016,08,16,14,47,25.70
2016,08,16,14,48,25.60
2016,08,16,14,49,25.50
2016,08,16,14,50,25.40
2016,08,16,14,51,25.40
2016,08,16,14,52,25.30
2016,08,16,14,53,25.30
2016,08,16,14,54,25.30
2016,08,16,14,55,25.20
2016,08,16,14,56,25.20
2016,08,16,14,57,25.30
2016,08,16,14,58,25.20
2016,08,16,14,59,25.20
2016,08,16,15,00,25.20
2016,08,16,15,01,25.20
2016,08,16,15,02,25.30
2016,08,16,15,03,25.30
2016,08,16,15,04,25.30
2016,08,16,15,05,25.30
2016,08,16,15,06,25.40
2016,08,16,15,07,25.40
2016,08,16,15,08,25.50
2016,08,16,15,09,25.50
2016,08,16,15,10,25.60
2016,08,16,15,11,25.60
2016,08,16,15,12,25.70
2016,08,16,15,13,25.70
2016,08,16,15,14,25.80
2016,08,16,15,15,25.80
2016,08,16,15,16,25.80
2016,08,16,15,17,25.80
2016,08,16,15,18,25.90
2016,08,16,15,19,26.00
2016,08,16,15,20,26.00
2016,08,16,15,21,26.00
2016,08,16,15,22,26.00
2016,08,16,15,23,26.10
2016,08,16,15,24,26.10
2016,08,16,15,25,26.10
2016,08,16,15,26,26.20
2016,08,16,15,27,26.20
2016,08,16,15,28,26.20
2016,08,16,15,29,26.20
2016,08,16,15,30,26.30
2016,08,16,15,31,26.30
2016,08,16,15,32,26.40
2016,08,16,15,33,26.40
2016,08,16,15,34,26.40
2016,08,16,15,35,26.40
2016,08,16,15,36,26.30
2016,08,16,15,37,26.30
2016,08,16,15,38,26.30
2016,08,16,15,39,26.20
2016,08,16,15,40,26.10
2016,08,16,15,41,26.10
2016,08,16,15,42,26.10
2016,08,16,15,43,26.10
2016,08,16,15,44,26.00
2016,08,16,15,45,26.10
2016,08,16,15,46,26.10
2016,08,16,15,47,26.20
2016,08,16,15,48,26.30
2016,08,16,15,49,26.30
2016,08,16,15,50,26.40
2016,08,16,15,51,26.40
2016,08,16,15,52,26.50
2016,08,16,15,53,26.50
2016,08,16,15,54,26.50
2016,08,16,15,55,26.50
2016,08,16,15,56,26.40
2016,08,16,15,57,26.40
2016,08,16,15,58,26.40
2016,08,16,15,59,26.40
2016,08,16,16,00,26.40
2016,08,16,16,01,26.40
2016,08,16,16,02,26.50
2016,08,16,16,03,26.50
2016,08,16,16,04,26.50
2016,08,16,16,05,26.50
2016,08,16,16,06,26.50
2016,08,16,16,07,26.50
2016,08,16,16,08,26.40
2016,08,16,16,09,26.40
2016,08,16,16,10,26.40
2016,08,16,16,11,26.40
2016,08,16,16,12,26.40
2016,08,16,16,13,26.40
2016,08,16,16,14,26.40
2016,08,16,16,15,26.40
2016,08,16,16,16,26.30
2016,08,16,16,17,26.30
2016,08,16,16,18,26.30
2016,08,16,16,19,26.40
2016,08,16,16,20,26.40
2016,08,16,16,21,26.50
2016,08,16,16,22,26.50
2016,08,16,16,23,26.40
2016,08,16,16,24,26.50
2016,08,16,16,25,26.50
2016,08,16,16,26,26.60
2016,08,16,16,27,26.70
2016,08,16,16,28,26.70
2016,08,16,16,29,26.70
2016,08,16,16,30,26.70
2016,08,16,16,31,26.80
2016,08,16,16,32,26.70
2016,08,16,16,33,26.70
2016,08,16,16,34,26.70
2016,08,16,16,35,26.60
2016,08,16,16,36,26.60
2016,08,16,16,37,26.60
2016,08,16,16,38,26.60
2016,08,16,16,39,26.60
2016,08,16,16,40,26.70
2016,08,16,16,41,26.70
2016,08,16,16,42,26.70
2016,08,16,16,43,26.70
2016,08,16,16,44,26.70
2016,08,16,16,45,26.70
2016,08,16,16,46,26.70
2016,08,16,16,47,26.70
2016,08,16,16,48,26.70
2016,08,16,16,49,26.60
2016,08,16,16,50,26.60
2016,08,16,16,51,26.70
2016,08,16,16,52,26.70
2016,08,16,16,53,26.70
2016,08,16,16,54,26.70
2016,08,16,16,55,26.70
2016,08,16,16,56,26.70
2016,08,16,16,57,26.70
2016,08,16,16,58,26.70
2016,08,16,16,59,26.70
2016,08,16,17,00,26.70
2016,08,16,17,01,26.60
2016,08,16,17,02,26.60
2016,08,16,17,03,26.50
2016,08,16,17,04,26.50
2016,08,16,17,05,26.50
2016,08,16,17,06,26.60
2016,08,16,17,07,26.50
2016,08,16,17,08,26.50
2016,08,16,17,09,26.60
2016,08,16,17,10,26.70
2016,08,16,17,11,26.70
2016,08,16,17,12,26.70
2016,08,16,17,13,26.80
2016,08,16,17,14,26.80
2016,08,16,17,15,26.90
2016,08,16,17,16,26.90
2016,08,16,17,17,26.90
2016,08,16,17,18,26.90
2016,08,16,17,19,26.90